Content
SEND FEEDBACK

Daily
Averages
Monthly
Summary
Saudi Arabia

AL MULTASA, SAUDI ARABIA


Home > Middle East > Saudi Arabia
Elevation: 36 feet     Latitude: 24 01N     Longitude: 038 13E

WEATHER
 
SELECT A DAY
Number of Records: 176,637;   Date Range: 7/1/96 - 9/16/14
 
SHARE

PRINT THIS DATA

[ ← Previous Day ]
WEATHER ALMANAC - JANUARY 31, 2013
[ Next Day → ]
[ °C ]   °F
Weather ElementAverageHighLow
Temperature68.7 °F74 °F (3:00 pm)62.6 °F (11:00 pm)
Dewpoint49.6 °F57.2 °F (12:00 am)39 °F (6:00 pm)
Humidity49.7 %68 % (1:00 am)21 % (6:00 pm)
Barometer29.89 in29.98 in (11:00 pm)29.83 in (12:00 am)
Wind Speed11.1 mph23 mph (4:00 pm)
Weather ElementAverage
Visibility6.1 mi
Wind DirectionWNW (280.6 °)

Weather ElementTotal
Precipitation---
Cooling Degree Days3.3 (Base 65)
Growing Degree Days18.3 (Base 50)
Averaged from 31 records on January 31, 2013
WEATHER CONDITIONS BREAKOUT
WIND DIRECTION BREAKOUT
WEATHER BY HOUR - JANUARY 31, 2013
[ °C ]   °F
Local TimeTemperatureDewpointHumidityBarometerVisibilityWind DirectionWind SpeedGust SpeedPrecipitationEventsConditions
12:00 AM69.8 °F57.2 °F64 %29.83 in6.2 miWest (270°)6.9 mphPartly Cloudy
1:00 AM68.0 °F57.2 °F68 %29.83 inWest (270°)6.9 mphClear
2:00 AM68.0 °F57.2 °F68 %29.83 inWNW (290°)6.9 mphClear
3:00 AM68.0 °F57.0 °F60 %29.83 in6.0 miWest (280°)4.6 mphScattered Clouds
3:00 AM68.0 °F57.2 °F68 %29.83 inWest (280°)4.6 mphClear
4:00 AM68.0 °F57.2 °F68 %29.83 inWNW (300°)4.6 mphClear
5:00 AM68.0 °F55.4 °F64 %29.83 in6.2 miWNW (290°)6.9 mphPartly Cloudy
6:00 AM66.2 °F55.4 °F68 %29.83 in6.2 miWNW (300°)4.6 mphScattered Clouds
6:00 AM67.0 °F55.0 °F57 %29.84 in6.0 miWNW (300°)4.6 mphPartly Cloudy
7:00 AM66.2 °F55.4 °F68 %29.86 in6.2 miWNW (300°)4.6 mphMostly Cloudy
8:00 AM66.2 °F55.4 °F68 %29.89 in6.2 miWNW (290°)4.6 mphScattered Clouds
9:00 AM68.0 °F54.0 °F50 %29.91 in6.0 miWNW (300°)11.5 mphPartly Cloudy
9:00 AM68.0 °F53.6 °F60 %29.89 in6.2 miWNW (300°)11.5 mphScattered Clouds
10:00 AM69.8 °F51.8 °F53 %29.92 in6.2 miWNW (300°)13.8 mphScattered Clouds
11:00 AM69.8 °F51.8 °F53 %29.92 in6.2 miWest (280°)13.8 mphScattered Clouds
12:00 PM71.6 °F50.0 °F46 %29.92 in6.2 miWest (280°)13.8 mphScattered Clouds
12:00 PM71.0 °F50.0 °F36 %29.92 in6.0 miWest (280°)13.8 mphScattered Clouds
1:00 PM73.4 °F51.8 °F47 %29.89 in6.2 miWest (260°)18.4 mphPartly Cloudy
2:00 PM73.4 °F48.2 °F41 %29.86 in6.2 miWest (270°)18.4 mphPartly Cloudy
3:00 PM74.0 °F48.0 °F29 %29.88 in6.0 miWest (270°)19.6 mphScattered Clouds
3:00 PM73.4 °F48.2 °F41 %29.86 in6.2 miWest (270°)19.6 mphPartly Cloudy
4:00 PM71.6 °F42.8 °F35 %29.86 in6.2 miWest (270°)23.0 mphPartly Cloudy
5:00 PM71.6 °F42.8 °F35 %29.89 inWest (260°)18.4 mphClear
6:00 PM69.8 °F39.2 °F33 %29.92 inWest (270°)19.6 mphClear
6:00 PM70.0 °F39.0 °F21 %29.93 in6.0 miWest (270°)19.6 mphScattered Clouds
7:00 PM68.0 °F41.0 °F37 %29.92 inWest (270°)17.3 mphClear
8:00 PM66.2 °F41.0 °F40 %29.95 inWest (260°)11.5 mphClear
9:00 PM64.0 °F41.0 °F31 %29.97 in6.0 miWest (270°)5.8 mphClear
9:00 PM64.4 °F41.0 °F42 %29.95 inWest (270°)5.8 mphClear
10:00 PM64.4 °F42.8 °F45 %29.95 inWest (280°)4.6 mphClear
11:00 PM62.6 °F41.0 °F45 %29.98 inWNW (300°)4.6 mphClear
Hourly data recorded from OEYN, located miles away from Al Multasa, Saudi Arabia







STORIES FROM OUR PARTNERS